Freeland, MI

8:23 PM EST on February 10, 2016 (GMT -0500)
MBS International

Weather History for KMBS - July, 2014

Change the Weather History Date:

Saturday, July 26, 2014

  Actual Average Record
Temperature  
Mean Temperature 72 °F 71 °F  
Max Temperature 82 °F 81 °F - ()
Min Temperature 62 °F 60 °F - ()
Degree Days  
Heating Degree Days 0    
Month to date heating degree days 10  
Since 1 June heating degree days 24  
Since 1 July heating degree days 10  
Cooling Degree Days 7    
Month to date cooling degree days 116  
Year to date cooling degree days 321  
Since 1 June cooling degree days 277  
Growing Degree Days 21 (Base 50)    
Moisture  
Dew Point 61 °F    
Average Humidity 69    
Maximum Humidity 84    
Minimum Humidity 54    
Precipitation  
Precipitation 0.01 in 0.08 in - ()
Month to date precipitation 2.97 2.14  
Year to date precipitation 16.93 16.77  
Snow  
Snow 0.00 in - - ()
Month to date snowfall 0.0  
Since 1 June snowfall 0.0  
Since 1 July snowfall 0.0  
Snow Depth 0.00 in    
Sea Level Pressure  
Sea Level Pressure 29.85 in    
Wind  
Wind Speed 9 mph (SW)    
Max Wind Speed 17 mph    
Max Gust Speed 21 mph    
Visibility 10 miles    
Events Thunderstorm    
T = Trace of Precipitation, MM = Missing Value Source: NWS Daily Summary

Daily Weather History Graph

Daily Weather History Graph

Search for Another Location

Airport or City:

Trip Planner

Search our weather history database for the weather conditions in past years. The results will help you decide how hot, cold, wet, or windy it might be!

Date:

Astronomy

Jul. 26, 2014 Rise Set
Actual Time 6:19 AM EDT 9:05 PM EDT
Civil Twilight 5:46 AM EDT 9:38 PM EDT
Nautical Twilight 5:04 AM EDT 10:20 PM EDT
Astronomical Twilight 4:15 AM EDT 11:09 PM EDT
Moon 6:13 AM EDT (7/26) 8:37 PM EDT (7/26)
Length of Visible Light 15h 52m
Length of Day
14h 46m
Waning Crescent, 0% of the Moon is Illuminated
Jul 26
Waning Crescent
Jul 26
New
Aug 3
First Quarter
Aug 10
Full
Aug 17
Last Quarter

Hourly Weather History & Observations

Time (EDT) Temp. Heat Index Dew Point Humidity Pressure Visibility Wind Dir Wind Speed Gust Speed Precip Events Conditions
12:53 AM 68.0 °F - 57.0 °F 68% 29.94 in 10.0 mi SW 10.4 mph - N/A   Scattered Clouds
1:53 AM 66.9 °F - 57.0 °F 70% 29.92 in 10.0 mi SSW 8.1 mph - N/A   Overcast
2:53 AM 66.0 °F - 57.0 °F 73% 29.91 in 10.0 mi SSW 8.1 mph - N/A   Overcast
3:53 AM 64.0 °F - 57.0 °F 78% 29.91 in 10.0 mi SSW 6.9 mph - N/A   Clear
4:53 AM 63.0 °F - 57.0 °F 81% 29.89 in 10.0 mi SSW 6.9 mph - N/A   Clear
5:53 AM 63.0 °F - 57.9 °F 84% 29.90 in 10.0 mi SSW 6.9 mph - N/A   Clear
6:53 AM 62.1 °F - 57.9 °F 86% 29.90 in 10.0 mi SSW 5.8 mph - N/A   Clear
7:53 AM 64.9 °F - 57.9 °F 78% 29.90 in 10.0 mi SSW 8.1 mph - N/A   Clear
8:53 AM 68.0 °F - 60.1 °F 76% 29.91 in 10.0 mi SW 8.1 mph - 0.00 in   Mostly Cloudy
9:09 AM 66.9 °F - 60.1 °F 79% 29.91 in 10.0 mi SSW 6.9 mph - N/A Thunderstorm Thunderstorm
9:27 AM 66.9 °F - 60.1 °F 79% 29.92 in 10.0 mi SW 5.8 mph - 0.00 in Thunderstorm Partly Cloudy
9:40 AM 68.0 °F - 61.0 °F 78% 29.91 in 10.0 mi SW 5.8 mph - 0.00 in   Partly Cloudy
9:53 AM 69.1 °F - 61.0 °F 75% 29.90 in 10.0 mi SSW 5.8 mph - 0.00 in   Clear
11:53 AM 75.0 °F - 61.0 °F 62% 29.88 in 10.0 mi WSW 6.9 mph - N/A   Partly Cloudy
2:53 PM 78.1 °F - 62.1 °F 58% 29.81 in 10.0 mi SW 10.4 mph - N/A   Partly Cloudy
3:53 PM 80.1 °F 81.5 °F 63.0 °F 56% 29.80 in 10.0 mi SW 11.5 mph - N/A   Mostly Cloudy
4:53 PM 80.1 °F 81.7 °F 64.0 °F 58% 29.79 in 10.0 mi SW 10.4 mph - N/A   Overcast
5:53 PM 79.0 °F - 64.9 °F 62% 29.78 in 10.0 mi WSW 12.7 mph - N/A   Overcast
6:53 PM 79.0 °F - 66.0 °F 64% 29.77 in 10.0 mi SW 9.2 mph - N/A   Mostly Cloudy
7:53 PM 78.1 °F - 64.9 °F 64% 29.76 in 10.0 mi SW 10.4 mph - N/A   Scattered Clouds
8:53 PM 77.0 °F - 66.0 °F 69% 29.78 in 10.0 mi WSW 9.2 mph - N/A   Overcast
9:53 PM 73.9 °F - 64.9 °F 73% 29.77 in 10.0 mi WSW 6.9 mph - N/A   Clear
10:53 PM 72.0 °F - 64.9 °F 78% 29.77 in 10.0 mi WSW 9.2 mph - N/A   Clear
11:53 PM 72.0 °F - 64.0 °F 76% 29.78 in 10.0 mi West 8.1 mph - N/A   Mostly Cloudy